Tracking 19847 objects as of 17-Sep-2019
HD Live streaming from Space Station
objects crossing your sky now

SL-14 DEB

Track SL-14 DEB now!
10-day predictions


NORAD ID: 29065
Int'l Code: 1978-100AX
Perigee: 1,673.9 km
Apogee: 1,714.3 km
Inclination: 82.5 °
Period: 120.1 minutes
Semi major axis: 8065 km
RCS: 0.015 m2 (small)
Launch date: October 26, 1978
Source: Commonwealth of Independent States (former USSR) (CIS)
Launch site: PLESETSK MISSILE AND SPACE COMPLEX (PKMTR)

Note: This is SATELLITE DEBRIS
aabbcc
Your satellite tracking list
Your tracking list is empty




NASA's NSSDC Master Catalog

Two Line Element Set (TLE):
1 29065U 78100AX  19258.17867269  .00000073  00000-0  80707-3 0  9994
2 29065  82.5413 329.4038 0025072 150.4076 240.4973 11.98641678709966
Source of the keplerian elements: AFSPC